This is the latest recevied weather packets stored in our database for station/object IZ3LCH-13. If no packets are shown the sender has not sent any weather packets the latest 10 day(s).
| Time | Temp. | Humidity | Pressure | Rain* | Wind** | Luminosity | Snow |
|---|---|---|---|---|---|---|---|
| 1777983303 | 16.11° C | 74% | 1013.6 hPa | 0 mm | - | - | - |
| 1777983003 | 16.11° C | 74% | 1013.6 hPa | 0 mm | - | - | - |
| 1777982703 | 16.11° C | 74% | 1013.7 hPa | 0 mm | - | - | - |
| 1777982403 | 16.11° C | 73% | 1013.5 hPa | 0 mm | - | - | - |
| 1777982103 | 16.11° C | 72% | 1013.6 hPa | 0 mm | - | - | - |
| 1777981803 | 16.11° C | 72% | 1013.4 hPa | 0 mm | - | - | - |
| 1777981503 | 16.11° C | 72% | 1013.5 hPa | 0 mm | - | - | - |
| 1777981203 | 16.67° C | 72% | 1013.5 hPa | 0 mm | - | - | - |
| 1777980903 | 16.67° C | 72% | 1013.6 hPa | 0 mm | - | - | - |
| 1777980603 | 16.67° C | 74% | 1013.5 hPa | 0 mm | - | - | - |
| 1777980303 | 16.67° C | 73% | 1013.5 hPa | 0 mm | - | - | - |
| 1777980003 | 16.67° C | 74% | 1013.7 hPa | 0 mm | - | - | - |
| 1777979703 | 16.67° C | 74% | 1013.6 hPa | 0 mm | - | - | - |
| 1777979403 | 16.67° C | 73% | 1013.5 hPa | 0 mm | - | - | - |
| 1777979103 | 16.67° C | 76% | 1013.3 hPa | 0 mm | - | - | - |
| 1777978803 | 16.67° C | 74% | 1013.5 hPa | 0 mm | - | - | - |
| 1777978503 | 16.67° C | 75% | 1013.5 hPa | 0 mm | - | - | - |
| 1777978203 | 16.11° C | 75% | 1013.6 hPa | 0 mm | - | - | - |
| 1777977903 | 16.11° C | 76% | 1013.8 hPa | 0 mm | - | - | - |
| 1777977603 | 16.11° C | 76% | 1013.4 hPa | 0 mm | - | - | - |
| 1777977303 | 15.56° C | 76% | 1013.6 hPa | 0 mm | - | - | - |
| 1777977003 | 15.56° C | 77% | 1013.7 hPa | 0 mm | - | - | - |
| 1777976703 | 15.56° C | 76% | 1013.8 hPa | 0 mm | - | - | - |
| 1777976403 | 16.11° C | 76% | 1013.7 hPa | 0 mm | - | - | - |
| 1777976103 | 16.11° C | 76% | 1013.9 hPa | 0 mm | - | - | - |
* Rain latest hour (hover to see other rain measurements)
** Current wind speed in m/s (hover to see current wind gust speed)